Location: Crab Orchard
(37.7292°N, 88.8042°W)
Time: 22:50:45
(UTC+00:00)

Cosmos 676 Rocket - Pass Details

Date: 08 December 2019
Orbit: 754 x 785 km, 74.0° (Epoch: 22 January)

Event Time Altitude Azimuth Distance (km) Brightness Sun altitude
Exits shadow 12:00:19 - 328° (NNW) 2,506 6.2 -11.2°
Reaches altitude 10° 12:00:50 10° 326° (NNW) 2,314 6.0 -11.1°
Maximum altitude 12:05:43 40° 258° (WSW) 1,127 4.5 -10.2°
Drops below altitude 10° 12:10:36 10° 190° (S) 2,318 6.6 -9.3°
Sets 12:13:06 0° 183° (S) 3,245 7.5 -8.8°
